Torna al catalogo

DELTA 1 DEB

AttivoUNKNOWN
NORAD 10469·DEBRIS·🇺🇸 United States

Lanciato Jul 14, 1977 da Cape Canaveral Space Force Station

Loading…

Prossimi Passaggi (prossime 24 ore)

TLE

AggiornatoSource: Space-Track

Epoca: Sep 13, 2026, 08:58 UTC

1 10469U 77065EB  26256.37403418  .00000291  00000-0  22055-3 0  9995
2 10469  29.1233 323.0108 0865185 204.2026 151.5414 12.72348383281630

Traccia DELTA 1 DEB in tempo reale con AllMySat

Download on the App Store